Weather History for Waterloo, IA

Change the Weather History Date:

Tuesday, December 17, 2013

  Actual Average Record
Temperature  
Mean Temperature 20 °F 21 °F  
Max Temperature 33 °F 30 °F 58 °F (1939)
Min Temperature 6 °F 13 °F -16 °F (1914)
Degree Days  
Heating Degree Days 45 44  
Month to date heating degree days 839 694  
Since 1 July heating degree days 2445 2177  
Cooling Degree Days 0 0  
Month to date cooling degree days 0 0  
Year to date cooling degree days 837 799  
Moisture  
Dew Point 16 °F    
Average Humidity 75    
Maximum Humidity 92    
Minimum Humidity 58    
Precipitation  
Precipitation 0.00 in 0.04 in 0.28 in (1895)
Month to date precipitation 0.38 0.75  
Year to date precipitation 40.32 34.15  
Snow  
Snow 0.00 in 0.40 in 2.50 in (1990)
Month to date snowfall 7.3 5.6  
Since 1 July snowfall 13.2 9.0  
Snow Depth 2.00 in    
Sea Level Pressure  
Sea Level Pressure 30.10 in    
Wind  
Wind Speed 13 mph (West)    
Max Wind Speed 26 mph    
Max Gust Speed 37 mph    
Visibility 9 miles    
Events      
T = Trace of Precipitation, MM = Missing Value Source: NWS Daily Summary

Daily Weather History Graph

Daily Weather History Graph

Search for Another Location

Airport:

Trip Planner

Search our weather history database for the weather conditions in past years. The results will help you decide how hot, cold, wet, or windy it might be!

Date:

Astronomy

Dec. 17, 2013 Rise Set
Actual Time 7:33 AM CST 4:37 PM CST
Civil Twilight 7:01 AM CST 5:09 PM CST
Nautical Twilight 6:26 AM CST 5:45 PM CST
Astronomical Twilight 5:51 AM CST 6:19 PM CST
Moon 5:19 PM CST (12/17) 7:29 AM CST (12/17)
Length of Visible Light 10h 08m
Length of Day
9h 03m
Full, 100% of the Moon is Illuminated
Dec 17
Full
Dec 25
Last Quarter
Jan 1
New
Jan 7
First Quarter
Jan 15
Full

Hourly Weather History & Observations

Time (CST) Temp. Windchill Dew Point Humidity Pressure Visibility Wind Dir Wind Speed Gust Speed Precip Events Conditions
12:54 AM 10.0 °F 3.6 °F 8.1 °F 92% 30.08 in 4.0 mi SW 3.5 mph - N/A   Clear
1:54 AM 12.0 °F 5.9 °F 10.0 °F 92% 30.08 in 6.0 mi WSW 3.5 mph - N/A   Clear
2:22 AM 8.1 °F 1.4 °F 6.1 °F 92% 30.03 in 2.5 mi SW 3.5 mph - N/A   Clear
2:35 AM 9.0 °F 2.4 °F 7.0 °F 92% 30.02 in 4.0 mi SW 3.5 mph - N/A   Clear
2:54 AM 12.0 °F 1.5 °F 10.0 °F 92% 30.07 in 7.0 mi WSW 6.9 mph - N/A   Clear
3:54 AM 19.9 °F 8.6 °F 17.1 °F 89% 30.04 in 10.0 mi WSW 10.4 mph - N/A   Clear
4:54 AM 23.0 °F 12.4 °F 19.9 °F 88% 30.04 in 10.0 mi West 10.4 mph - N/A   Overcast
5:54 AM 27.0 °F 16.1 °F 21.9 °F 81% 30.03 in 10.0 mi West 12.7 mph - N/A   Overcast
6:54 AM 28.0 °F 18.1 °F 23.0 °F 81% 30.04 in 10.0 mi West 11.5 mph - N/A   Overcast
7:54 AM 28.0 °F 19.3 °F 21.9 °F 78% 30.05 in 10.0 mi West 9.2 mph - N/A   Clear
8:54 AM 30.0 °F 19.5 °F 23.0 °F 75% 30.07 in 10.0 mi WNW 13.8 mph 24.2 mph N/A   Clear
9:54 AM 32.0 °F 19.8 °F 21.9 °F 66% 30.08 in 10.0 mi WNW 20.7 mph 33.4 mph N/A   Clear
10:54 AM 33.1 °F 21.2 °F 21.9 °F 64% 30.09 in 10.0 mi NW 20.7 mph 32.2 mph N/A   Clear
11:54 AM 32.0 °F 19.5 °F 21.0 °F 64% 30.09 in 10.0 mi WNW 21.9 mph 32.2 mph N/A   Clear
12:54 PM 30.9 °F 19.1 °F 19.0 °F 61% 30.09 in 10.0 mi WNW 18.4 mph 34.5 mph N/A   Clear
1:54 PM 30.0 °F 16.9 °F 18.0 °F 61% 30.09 in 10.0 mi WNW 21.9 mph 34.5 mph N/A   Clear
2:54 PM 30.0 °F 16.3 °F 18.0 °F 61% 30.10 in 10.0 mi WNW 24.2 mph 33.4 mph N/A   Partly Cloudy
3:54 PM 28.0 °F 16.1 °F 17.1 °F 63% 30.13 in 10.0 mi WNW 16.1 mph 25.3 mph N/A   Clear
4:54 PM 25.0 °F 14.2 °F 15.1 °F 66% 30.15 in 10.0 mi WNW 11.5 mph - N/A   Clear
5:54 PM 24.1 °F 13.1 °F 15.1 °F 69% 30.16 in 10.0 mi West 11.5 mph 20.7 mph N/A   Clear
6:54 PM 23.0 °F 12.4 °F 15.1 °F 72% 30.17 in 10.0 mi WNW 10.4 mph - N/A   Clear
7:54 PM 23.0 °F 12.4 °F 14.0 °F 68% 30.17 in 10.0 mi WNW 10.4 mph - N/A   Clear
8:54 PM 21.9 °F 11.0 °F 14.0 °F 72% 30.18 in 10.0 mi WNW 10.4 mph - N/A   Clear
9:54 PM 19.9 °F 9.3 °F 12.9 °F 74% 30.19 in 10.0 mi WSW 9.2 mph - N/A   Clear
10:54 PM 17.1 °F 5.8 °F 12.0 °F 81% 30.19 in 10.0 mi West 9.2 mph - N/A   Clear
11:54 PM 16.0 °F 8.8 °F 10.9 °F 81% 30.18 in 10.0 mi West 4.6 mph - N/A   Clear